Hauptseite
METAR-TAF:

METAR-TAF

Flughäfen :

Holbeach, England

RAF

Breite: 52-52N, Länge: 000-09E, Höhe: 3 m

Beobachtung

Neuester Wetterbericht von vor 14 Stunden und 59 Minuten, um 14:50 UTC
Wind 14 kt aus West/Südwest
Temperatur 12°C
Luftfeuchtigkeit 71%
Luftdruck 1009 hPa
Sichtweite 10 km oder mehr
Leicht bewölkt in der Höhe von 2000 ft
Aufgelockert bewölkt in der Höhe von 5000 ft

METAR: EGYH 251450Z 24014KT 9999 FEW020 SCT050 12/07 Q1009 BLU

Zeit: 06:49 (05:49 UTC)


TAF: fehlend

Wetterbeobachtungen und Prognosen von mehr als 4000 Flughäfen (METAR und TAF Bericht).

Die verfügbaren Stationen werden durch gelbe und rote Markierungen auf der Karte dargestellt.

Führen Sie die Maus auf sie, um den Namen der Station zu sehen.

Darauf klicken, um die Beobachtung von Wetterbeobachtungen und Prognosen zu sehen.

Um die Karte zu ändern : klicken Sie auf den grünen Tasten mit einem schwarzen Kreuz Zum Vergrößern, auf den grünen Button mit einem Gedankenstrich zu verkleinern, oder auf die grünen Pfeile für benachbarte Karten.


METAR-TAF: